W7OG-10 Weather Reports


Display with metric or nautical units.
time (UTC)temp
F
wind
direction
speed
MPH
gust
MPH
rain 1hr
in
rain 24hr
in
rain mn
in
humidity
%
barometer
mb
20260504212912 89 0.0 0.0 0.00 0.00 0.00 64 1008.1
20260504211809 89 181 1.0 5.0 0.00 0.00 0.00 63 1008.0
20260504210809 89 181 0.0 5.0 0.00 0.00 0.00 61 1008.0
20260504205809 89 181 1.0 6.0 0.00 0.00 0.00 58 1008.1
20260504204809 89 181 1.0 5.0 0.00 0.00 0.00 59 1008.0
20260504203810 89 181 1.0 5.0 0.00 0.00 0.00 59 1008.0
20260504202810 89 181 0.0 4.0 0.00 0.00 0.00 60 1007.9
20260504201811 88 181 1.0 7.0 0.00 0.00 0.00 60 1007.9
20260504195810 88 181 0.0 4.0 0.00 0.00 0.00 60 1007.9
20260504194810 88 181 1.0 6.0 0.00 0.00 0.00 61 1007.9
20260504193810 87 0.0 0.0 0.00 0.00 0.00 60 1008.0
20260504192810 88 181 2.0 8.0 0.00 0.00 0.00 61 1008.0
20260504191809 87 181 1.0 5.0 0.00 0.00 0.00 63 1008.0
20260504190810 87 181 1.0 8.0 0.00 0.00 0.00 63 1007.9
20260504185809 87 181 0.0 4.0 0.00 0.00 0.00 65 1007.9
20260504184810 86 181 1.0 6.0 0.00 0.00 0.00 66 1007.9
20260504183829 86 181 2.0 8.0 0.00 0.00 0.00 68 1008.0
20260504182810 85 181 1.0 8.0 0.00 0.00 0.00 69 1008.0
20260504181810 85 181 1.0 7.0 0.00 0.00 0.00 70 1008.1
20260504180810 85 181 1.0 5.0 0.00 0.00 0.00 75 1008.1
20260504175810 84 181 0.0 3.0 0.00 0.00 0.00 79 1008.0
20260504174830 84 181 1.0 5.0 0.00 0.00 0.00 81 1008.0
20260504173811 84 0.0 0.0 0.00 0.00 0.00 81 1007.9
20260504172811 83 0.0 0.0 0.00 0.00 0.00 83 1007.7
20260504171810 83 0.0 0.0 0.00 0.00 0.00 85 1007.6
20260504170811 83 181 2.0 5.0 0.00 0.00 0.00 85 1007.5
20260504150811 80 0.0 0.0 0.00 0.00 0.00 87 1008.6
20260504140811 77 0.0 0.0 0.00 0.00 0.00 91 1008.7
20260504130811 75 0.0 0.0 0.00 0.00 0.00 89 1008.3
20260504081813 78 0.0 0.0 0.00 0.00 0.00 82 1007.7
20260504080812 78 0.0 0.0 0.00 0.00 0.00 81 1007.6